TimeEEST,TemperatureF,Dew PointF,Humidity,Sea Level PressureIn,VisibilityMPH,Wind Direction,Wind SpeedMPH,Gust SpeedMPH,PrecipitationIn,Events,Conditions,WindDirDegrees,DateUTC
12:20 AM,62.6,55.4,77,30.09,6.2,NNW,9.2,-,N/A,,Mostly Cloudy,340,2011-10-14 21:20:00
12:50 AM,62.6,55.4,77,30.12,6.2,NNW,8.1,-,N/A,,Mostly Cloudy,340,2011-10-14 21:50:00
1:20 AM,62.6,53.6,72,30.12,6.2,NNW,8.1,-,N/A,,Mostly Cloudy,340,2011-10-14 22:20:00
1:50 AM,62.6,53.6,72,30.09,6.2,NNW,6.9,-,N/A,,Mostly Cloudy,330,2011-10-14 22:50:00
2:20 AM,62.6,53.6,72,30.09,6.2,NNW,5.8,-,N/A,,Mostly Cloudy,340,2011-10-14 23:20:00
2:50 AM,62.6,53.6,72,30.09,6.2,Variable,3.5,-,N/A,,Mostly Cloudy,0,2011-10-14 23:50:00
3:20 AM,60.8,53.6,77,30.09,6.2,NW,6.9,-,N/A,,Mostly Cloudy,310,2011-10-15 00:20:00
3:50 AM,60.8,53.6,77,30.09,6.2,NW,9.2,-,N/A,,Mostly Cloudy,320,2011-10-15 00:50:00
4:20 AM,60.8,53.6,77,30.09,6.2,NW,8.1,-,N/A,,Mostly Cloudy,320,2011-10-15 01:20:00
4:50 AM,60.8,53.6,77,30.06,6.2,NW,6.9,-,N/A,,Mostly Cloudy,310,2011-10-15 01:50:00
5:20 AM,60.8,53.6,77,30.06,6.2,NW,6.9,-,N/A,,Mostly Cloudy,320,2011-10-15 02:20:00
6:20 AM,60.8,53.6,77,30.06,6.2,Variable,3.5,-,N/A,,Mostly Cloudy,0,2011-10-15 03:20:00
6:50 AM,62.6,53.6,72,30.06,6.2,Calm,Calm,-,N/A,,Mostly Cloudy,0,2011-10-15 03:50:00
7:20 AM,62.6,53.6,72,30.06,6.2,NW,6.9,-,N/A,,Mostly Cloudy,320,2011-10-15 04:20:00
7:50 AM,60.8,53.6,77,30.06,6.2,NW,12.7,-,N/A,,Mostly Cloudy,320,2011-10-15 04:50:00
8:20 AM,60.8,51.8,72,30.06,6.2,NNW,11.5,-,N/A,,Mostly Cloudy,330,2011-10-15 05:20:00
8:50 AM,60.8,53.6,77,30.06,5.6,NNW,4.6,-,N/A,Rain,Light Rain,330,2011-10-15 05:50:00
9:20 AM,59.0,53.6,82,30.09,5.0,WNW,4.6,-,N/A,Rain,Rain,300,2011-10-15 06:20:00
9:50 AM,60.8,55.4,82,30.09,6.2,NNW,9.2,-,N/A,Rain,Light Rain,340,2011-10-15 06:50:00
10:20 AM,60.8,55.4,82,30.09,6.2,NW,11.5,-,N/A,,Mostly Cloudy,320,2011-10-15 07:20:00
10:50 AM,60.8,55.4,82,30.09,6.2,NW,10.4,-,N/A,,Mostly Cloudy,320,2011-10-15 07:50:00
11:20 AM,60.8,55.4,82,30.09,6.2,NW,9.2,-,N/A,,Mostly Cloudy,320,2011-10-15 08:20:00
11:50 AM,62.6,55.4,77,30.09,6.2,NNW,10.4,-,N/A,,Mostly Cloudy,330,2011-10-15 08:50:00
12:20 PM,62.6,55.4,77,30.09,6.2,NNW,9.2,-,N/A,,Mostly Cloudy,330,2011-10-15 09:20:00
12:50 PM,62.6,55.4,77,30.09,6.2,NW,12.7,-,N/A,,Mostly Cloudy,320,2011-10-15 09:50:00
1:20 PM,62.6,53.6,72,30.09,6.2,NW,11.5,-,N/A,,Mostly Cloudy,320,2011-10-15 10:20:00
1:50 PM,62.6,51.8,68,30.06,6.2,NW,12.7,-,N/A,,Mostly Cloudy,320,2011-10-15 10:50:00
2:20 PM,62.6,53.6,72,30.06,6.2,North,8.1,-,N/A,,Mostly Cloudy,360,2011-10-15 11:20:00
2:50 PM,62.6,51.8,68,30.06,6.2,North,6.9,-,N/A,,Mostly Cloudy,360,2011-10-15 11:50:00
3:20 PM,62.6,51.8,68,30.06,6.2,North,6.9,-,N/A,,Mostly Cloudy,350,2011-10-15 12:20:00
3:50 PM,62.6,51.8,68,30.06,6.2,North,6.9,-,N/A,,Mostly Cloudy,350,2011-10-15 12:50:00
4:20 PM,62.6,50.0,63,30.06,6.2,North,4.6,-,N/A,,Mostly Cloudy,350,2011-10-15 13:20:00
4:50 PM,62.6,50.0,63,30.06,6.2,Calm,Calm,-,N/A,,Overcast,0,2011-10-15 13:50:00
5:20 PM,62.6,50.0,63,30.06,6.2,Calm,Calm,-,N/A,,Overcast,0,2011-10-15 14:20:00
5:50 PM,60.8,50.0,68,30.04,6.2,Variable,3.5,-,N/A,,Overcast,0,2011-10-15 14:50:00
6:20 PM,60.8,50.0,68,30.04,6.2,WNW,5.8,-,N/A,,Overcast,300,2011-10-15 15:20:00
6:50 PM,60.8,50.0,68,30.04,6.2,West,6.9,-,N/A,,Mostly Cloudy,270,2011-10-15 15:50:00
7:20 PM,60.8,50.0,68,30.04,6.2,Variable,3.5,-,N/A,,Mostly Cloudy,0,2011-10-15 16:20:00
7:50 PM,60.8,50.0,68,30.06,6.2,NNW,5.8,-,N/A,,Mostly Cloudy,330,2011-10-15 16:50:00
8:20 PM,60.8,50.0,68,30.06,6.2,NW,10.4,-,N/A,,Mostly Cloudy,310,2011-10-15 17:20:00
8:50 PM,60.8,50.0,68,30.06,6.2,WNW,9.2,-,N/A,,Mostly Cloudy,300,2011-10-15 17:50:00
9:20 PM,60.8,50.0,68,30.06,6.2,NW,9.2,-,N/A,,Mostly Cloudy,310,2011-10-15 18:20:00
9:50 PM,59.0,50.0,72,30.06,6.2,NW,6.9,-,N/A,,Mostly Cloudy,320,2011-10-15 18:50:00
10:20 PM,60.8,48.2,63,30.06,6.2,NW,6.9,-,N/A,,Mostly Cloudy,320,2011-10-15 19:20:00
10:50 PM,59.0,50.0,72,30.06,6.2,NW,9.2,-,N/A,,Mostly Cloudy,320,2011-10-15 19:50:00
11:20 PM,59.0,50.0,72,30.06,6.2,NW,9.2,-,N/A,,Mostly Cloudy,320,2011-10-15 20:20:00
11:50 PM,59.0,50.0,72,30.06,6.2,NW,6.9,-,N/A,,Mostly Cloudy,320,2011-10-15 20:50:00